Weather History for Kalispell, MT

Change the Weather History Date:

Monday, September 17, 2012

  Actual Average Record
Temperature  
Mean Temperature 56 °F 54 °F  
Max Temperature 75 °F 69 °F 89 °F (1981)
Min Temperature 36 °F 38 °F 22 °F (1973)
Degree Days  
Heating Degree Days 9 11  
Month to date heating degree days 162 145  
Since 1 July heating degree days 280 315  
Cooling Degree Days 0 0  
Month to date cooling degree days 0 1  
Year to date cooling degree days 192 144  
Growing Degree Days 6 (Base 50)    
Moisture  
Dew Point 38 °F    
Average Humidity 63    
Maximum Humidity 100    
Minimum Humidity 25    
Precipitation  
Precipitation 0.00 in 0.05 in 0.85 in (1985)
Month to date precipitation 0.44 0.82  
Year to date precipitation 14.95 12.43  
Snow  
Snow 0.00 in - - ()
Month to date snowfall 0.0  
Year to date snowfall 25.1  
Since 1 July snowfall 0.0  
Snow Depth 0.00 in    
Sea Level Pressure  
Sea Level Pressure 30.14 in    
Wind  
Wind Speed 2 mph (West)    
Max Wind Speed 8 mph    
Max Gust Speed 13 mph    
Visibility 10 miles    
Events      
T = Trace of Precipitation, MM = Missing Value Source: NWS Daily Summary

Daily Weather History Graph

Daily Weather History Graph

Search for Another Location

Airport:

Trip Planner

Search our weather history database for the weather conditions in past years. The results will help you decide how hot, cold, wet, or windy it might be!

Date:

Astronomy

Sep. 17, 2012 Rise Set
Actual Time 7:17 AM MDT 7:44 PM MDT
Civil Twilight 6:46 AM MDT 8:15 PM MDT
Nautical Twilight 6:09 AM MDT 8:52 PM MDT
Astronomical Twilight 5:30 AM MDT 9:30 PM MDT
Moon 9:25 AM MDT (9/17) 8:12 PM MDT (9/17)
Length of Visible Light 13h 29m
Length of Day
12h 26m
Waxing Crescent, 4% of the Moon is Illuminated
Sep 17
Waxing Crescent
Sep 22
First Quarter
Sep 29
Full
Oct 8
Last Quarter
Oct 15
New

Hourly Weather History & Observations

Time (MDT) Temp. Windchill Dew Point Humidity Pressure Visibility Wind Dir Wind Speed Gust Speed Precip Events Conditions
12:55 AM 43.0 °F 41.3 °F 36.0 °F 76% 30.12 in 10.0 mi WNW 3.5 mph - N/A   Clear
1:55 AM 43.0 °F 40.3 °F 36.0 °F 76% 30.12 in 10.0 mi WNW 4.6 mph - N/A   Clear
2:55 AM 41.0 °F - 36.0 °F 82% 30.13 in 10.0 mi Calm Calm - N/A   Clear
3:55 AM 37.9 °F - 35.1 °F 89% 30.14 in 10.0 mi Calm Calm - N/A   Clear
4:55 AM 37.0 °F 34.5 °F 34.0 °F 89% 30.14 in 10.0 mi West 3.5 mph - N/A   Clear
5:55 AM 37.0 °F - 34.0 °F 89% 30.15 in 10.0 mi Calm Calm - N/A   Clear
6:55 AM 36.0 °F 33.3 °F 35.1 °F 97% 30.17 in 10.0 mi WNW 3.5 mph - N/A   Clear
7:55 AM 37.9 °F 34.4 °F 35.1 °F 89% 30.19 in 10.0 mi WNW 4.6 mph - N/A   Clear
8:55 AM 50.0 °F - 39.9 °F 68% 30.19 in 10.0 mi Calm Calm - N/A   Clear
9:55 AM 57.0 °F - 37.9 °F 49% 30.19 in 10.0 mi NNE 3.5 mph - N/A   Clear
10:55 AM 60.1 °F - 37.9 °F 44% 30.19 in 10.0 mi ENE 5.8 mph - N/A   Clear
11:55 AM 63.0 °F - 37.9 °F 40% 30.18 in 10.0 mi Variable 4.6 mph - N/A   Clear
12:55 PM 66.9 °F - 37.9 °F 34% 30.17 in 10.0 mi Calm Calm - N/A   Clear
1:55 PM 70.0 °F - 37.9 °F 31% 30.14 in 10.0 mi ESE 3.5 mph - N/A   Clear
2:55 PM 73.0 °F - 37.9 °F 28% 30.12 in 10.0 mi Calm Calm - N/A   Clear
3:55 PM 73.0 °F - 37.9 °F 28% 30.12 in 10.0 mi Variable 5.8 mph - N/A   Clear
4:55 PM 75.0 °F - 37.9 °F 26% 30.10 in 10.0 mi SSE 3.5 mph - N/A   Clear
5:55 PM 73.9 °F - 37.9 °F 27% 30.10 in 10.0 mi South 5.8 mph - N/A   Clear
6:55 PM 71.1 °F - 41.0 °F 34% 30.09 in 10.0 mi SW 3.5 mph - N/A   Clear
7:55 PM 61.0 °F - 41.0 °F 48% 30.11 in 10.0 mi Calm Calm - N/A   Clear
8:55 PM 53.1 °F - 43.0 °F 69% 30.11 in 10.0 mi Calm Calm - N/A   Clear
9:55 PM 50.0 °F - 39.9 °F 68% 30.11 in 10.0 mi Calm Calm - N/A   Clear
10:55 PM 48.0 °F - 42.1 °F 80% 30.11 in 10.0 mi Calm Calm - N/A   Clear
11:55 PM 45.0 °F - 39.9 °F 82% 30.12 in 10.0 mi Calm Calm - N/A   Clear